Phuket, Thailand

8:46 AM +07 on November 18, 2017 (GMT +0700)
Phuket International

Weather History for VTSP - February, 2012

Change the Weather History Date:

Saturday, February 11, 2012

  Actual Average Record
Temperature  
Mean Temperature 82 °F -  
Max Temperature 92 °F 91 °F 100 °F (1998)
Min Temperature 72 °F 75 °F 69 °F (2014)
Cooling Degree Days 17    
Growing Degree Days 32 (Base 50)    
Moisture  
Dew Point 71 °F    
Average Humidity 68    
Maximum Humidity 94    
Minimum Humidity 46    
Precipitation  
Precipitation 0.00 in 0.05 in - ()
Sea Level Pressure  
Sea Level Pressure 29.83 in    
Wind  
Wind Speed 5 mph ()    
Max Wind Speed 14 mph    
Max Gust Speed -    
Visibility 5.5 miles    
Events      
Averages and records for this station are not official NWS values.
T = Trace of Precipitation, MM = Missing Value Source: Averaged Metar Reports

Daily Weather History Graph

Daily Weather History Graph

Search for Another Location

Airport or City:

Trip Planner

Search our weather history database for the weather conditions in past years. The results will help you decide how hot, cold, wet, or windy it might be!

Date:

Astronomy

Feb. 11, 2012 Rise Set
Actual Time 6:45 AM +07 6:36 PM +07
Civil Twilight 6:24 AM +07 6:57 PM +07
Nautical Twilight 5:59 AM +07 7:22 PM +07
Astronomical Twilight 5:34 AM +07 7:47 PM +07
Moon 9:42 PM +07 (2/11) 9:07 AM +07 (2/11)
Length of Visible Light 12h 33m
Length of Day
11h 50m
Waning Gibbous, 86% of the Moon is Illuminated
Feb 11
Waning Gibbous
Feb 15
Last Quarter
Feb 22
New
Mar 1
First Quarter
Mar 8
Full

Hourly Weather History & Observations

Time (+07) Temp. Heat Index Dew Point Humidity Pressure Visibility Wind Dir Wind Speed Gust Speed Precip Events Conditions
12:00 AM 78.8 °F - 68.0 °F 69% 29.89 in 5.0 mi NE 3.5 mph - N/A   Scattered Clouds
12:30 AM 75.2 °F - 69.8 °F 83% 29.89 in 5.0 mi Calm Calm - N/A   Scattered Clouds
1:00 AM 76 °F - 71 °F 78% 29.84 in 6 mi Calm Calm - -   Mist
1:00 AM 73.4 °F - 71.6 °F 94% 29.86 in 5.0 mi Calm Calm - N/A   Scattered Clouds
1:30 AM 75.2 °F - 71.6 °F 89% 29.86 in 5.0 mi Variable 2.3 mph - N/A   Scattered Clouds
2:00 AM 73.4 °F - 69.8 °F 88% 29.83 in 5.0 mi Calm Calm - N/A   Scattered Clouds
2:30 AM 73.4 °F - 69.8 °F 88% 29.83 in 5.0 mi Calm Calm - N/A   Scattered Clouds
3:00 AM 73.4 °F - 69.8 °F 88% 29.83 in 5.0 mi Calm Calm - N/A   Scattered Clouds
3:30 AM 75.2 °F - 69.8 °F 83% 29.83 in 5.0 mi Variable 1.2 mph - N/A   Scattered Clouds
4:00 AM 71.6 °F - 69.8 °F 94% 29.83 in 5.0 mi NNE 4.6 mph - N/A   Scattered Clouds
4:30 AM 77.0 °F - 69.8 °F 78% 29.83 in 5.0 mi ENE 6.9 mph - N/A   Mostly Cloudy
5:00 AM 75.2 °F - 68.0 °F 78% 29.80 in 5.0 mi East 4.6 mph - N/A   Scattered Clouds
5:30 AM 77.0 °F - 68.0 °F 74% 29.80 in 5.0 mi ENE 6.9 mph - N/A   Scattered Clouds
6:00 AM 77.0 °F - 68.0 °F 74% 29.83 in 5.0 mi ENE 5.8 mph - N/A   Scattered Clouds
6:30 AM 77.0 °F - 69.8 °F 78% 29.83 in 5.0 mi ENE 6.9 mph - N/A   Scattered Clouds
7:00 AM 77 °F - 71 °F 75% 29.81 in 6 mi East 5.8 mph - -   Mist
7:00 AM 77.0 °F - 69.8 °F 78% 29.83 in 5.0 mi ENE 6.9 mph - N/A   Scattered Clouds
7:30 AM 78.8 °F - 69.8 °F 74% 29.83 in 5.6 mi ENE 6.9 mph - N/A   Scattered Clouds
8:00 AM 80.6 °F 83.9 °F 69.8 °F 70% 29.86 in 5.6 mi ENE 9.2 mph - N/A   Scattered Clouds
8:30 AM 82.4 °F 86.3 °F 69.8 °F 66% 29.86 in 5.6 mi ENE 10.4 mph - N/A   Scattered Clouds
9:00 AM 82.4 °F 86.3 °F 69.8 °F 66% 29.86 in 5.6 mi ENE 8.1 mph - N/A   Scattered Clouds
9:30 AM 84.2 °F 88.4 °F 69.8 °F 62% 29.89 in 5.6 mi East 10.4 mph - N/A   Scattered Clouds
10:00 AM 86.0 °F 90.4 °F 69.8 °F 58% 29.89 in 5.6 mi ENE 13.8 mph - N/A   Scattered Clouds
10:30 AM 84.2 °F 88.4 °F 69.8 °F 62% 29.89 in 5.6 mi ENE 12.7 mph - N/A   Scattered Clouds
11:00 AM 86.0 °F 90.4 °F 69.8 °F 58% 29.89 in 5.6 mi East 12.7 mph - N/A   Scattered Clouds
11:30 AM 86.0 °F 90.4 °F 69.8 °F 58% 29.86 in 5.6 mi East 12.7 mph - N/A   Scattered Clouds
12:00 PM 87.8 °F 92.6 °F 69.8 °F 55% 29.86 in 5.6 mi East 13.8 mph - N/A   Scattered Clouds
12:30 PM 87.8 °F 92.6 °F 69.8 °F 55% 29.83 in 5.6 mi East 11.5 mph - N/A   Scattered Clouds
1:00 PM 89 °F - 71 °F 46% 29.83 in 6 mi East 8.1 mph - -   Haze
1:00 PM 87.8 °F 92.6 °F 69.8 °F 55% 29.83 in 5.6 mi ENE 11.5 mph - N/A   Scattered Clouds
1:30 PM 89.6 °F 94.7 °F 69.8 °F 52% 29.80 in 5.6 mi ENE 11.5 mph - N/A   Scattered Clouds
2:00 PM 89.6 °F 96.2 °F 71.6 °F 55% 29.80 in 5.6 mi East 11.5 mph - N/A   Scattered Clouds
2:30 PM 89.6 °F 96.2 °F 71.6 °F 55% 29.77 in 5.6 mi East 11.5 mph - N/A   Scattered Clouds
3:00 PM 91.4 °F 98.4 °F 71.6 °F 52% 29.77 in 5.6 mi East 10.4 mph - N/A   Scattered Clouds
3:30 PM 91.4 °F 96.8 °F 69.8 °F 49% 29.74 in 5.6 mi East 8.1 mph - N/A   Scattered Clouds
4:00 PM 91.4 °F 98.4 °F 71.6 °F 52% 29.74 in 5.6 mi ENE 6.9 mph - N/A   Scattered Clouds
4:30 PM 91.4 °F 96.8 °F 69.8 °F 49% 29.74 in 5.6 mi East 9.2 mph - N/A   Scattered Clouds
5:00 PM 89.6 °F 96.2 °F 71.6 °F 55% 29.74 in 5.6 mi ENE 6.9 mph - N/A   Scattered Clouds
5:30 PM 89.6 °F 96.2 °F 71.6 °F 55% 29.74 in 5.6 mi ENE 4.6 mph - N/A   Scattered Clouds
6:00 PM 86.0 °F 93.4 °F 73.4 °F 66% 29.74 in 5.6 mi North 4.6 mph - N/A   Scattered Clouds
7:00 PM 85 °F - 75 °F 64% 29.76 in 6 mi Calm Calm - -   Mist
7:00 PM 84.2 °F 89.6 °F 71.6 °F 66% 29.77 in 5.6 mi West 5.8 mph - N/A   Scattered Clouds
7:30 PM 82.4 °F 87.2 °F 71.6 °F 70% 29.80 in 5.6 mi WNW 4.6 mph - N/A   Mostly Cloudy
8:00 PM 82.4 °F 87.2 °F 71.6 °F 70% 29.80 in 5.6 mi Variable 2.3 mph - N/A   Scattered Clouds
8:30 PM 80.6 °F 85.4 °F 73.4 °F 79% 29.83 in 6.2 mi Calm Calm - N/A   Partly Cloudy
9:00 PM 78.8 °F - 73.4 °F 83% 29.86 in 6.2 mi Calm Calm - N/A   Partly Cloudy
9:30 PM 78.8 °F - 73.4 °F 83% 29.86 in 6.2 mi SE 5.8 mph - N/A   Partly Cloudy
10:00 PM 84.2 °F 88.4 °F 69.8 °F 62% 29.86 in 6.2 mi East 11.5 mph - N/A   Partly Cloudy
10:30 PM 84.2 °F 88.4 °F 69.8 °F 62% 29.86 in 6.2 mi ESE 12.7 mph - N/A   Partly Cloudy
11:00 PM 80.6 °F 83.9 °F 69.8 °F 70% 29.86 in 6.2 mi ENE 5.8 mph - N/A   Partly Cloudy
11:30 PM 80.6 °F 83.9 °F 69.8 °F 70% 29.86 in 6.2 mi ENE 6.9 mph - N/A   Partly Cloudy